Regional Weather Roundup
Issued by NWS Green Bay, WI

Home | Current Version | Previous Version | Text Only | Print | Product List | Glossary On
Versions: 1 2 3 4 5 6 7 8 9 10 11 12 13 14 15 16 17 18 19 20 21 22 23 24 25 26 27 28 29 30 31 32 33 34 35 36 37 38 39 40 41 42 43 44 45 46 47 48 49 50
000
ASUS43 KGRB 011710
RWRGRB

NORTH-CENTRAL AND NORTHEAST WISCONSIN REGIONAL WEATHER ROUNDUP
NATIONAL WEATHER SERVICE GREEN BAY WI
1200 PM CDT MON SEP 01 2014

WIZ005-009-010>012-018-019-011800-
NORTH CENTRAL WISCONSIN

CITY           SKY/WX    TMP DP  RH WIND       PRES   REMARKS
IRONWOOD       NOT AVBL
MANITOWISH WTR CLOUDY    65  64  96 W6        29.65R
ARBOR VITAE    CLOUDY    64  62  92 W7        29.66R
EAGLE RIVER    DRIZZLE   63  63 100 W9        29.64R
LAND O LAKES   CLOUDY    64  63  96 SW5       29.64R
RHINELANDER    HVY RAIN  62  61  96 W13       29.68R FOG
PHILLIPS       CLOUDY    65  63  92 W8        29.67R
ANTIGO         CLOUDY    64  62  94 SW9       29.68F
TOMAHAWK       CLOUDY    65  64  95 SW5       29.68R
MERRILL        CLOUDY    67  64  89 W8        29.68R
$$

WIZ013-073-011800-
NORTHEAST WISCONSIN

CITY           SKY/WX    TMP DP  RH WIND       PRES   REMARKS
IRON MOUNTAIN  LGT RAIN  66  63  90 S9        29.64F
MARINETTE      CLOUDY    66  63  88 SW6       29.66F
OCONTO         CLOUDY    66  66 100 SW6       29.68F
$$

WIZ017-030-035>037-045-011800-
CENTRAL WISCONSIN

CITY           SKY/WX    TMP DP  RH WIND       PRES   REMARKS
MEDFORD        LGT RAIN  64  63  95 SW8       29.69R
WAUSAU         CLOUDY    68  63  84 SW8       29.67S
MOSINEE        CLOUDY    66  64  94 SW8       29.69F
MARSHFIELD     CLOUDY    67  64  90 SW12      29.68S
WISC RAPIDS    CLOUDY    70  65  84 SW13G22   29.70S
STEVENS POINT  CLOUDY    65  63  93 SW10      29.69S
WAUPACA        CLOUDY    69  67  92 S7        29.69F
SHAWANO        LGT RAIN  69  65  90 S5        29.68F
CLINTONVILLE   LGT RAIN  66  64  94 S10       29.69F
$$

WIZ038-039-048-051-011800-
FOX VALLEY

CITY           SKY/WX    TMP DP  RH WIND       PRES   REMARKS
NWS GREEN BAY  CLOUDY    68  66  93 SW6       29.70F
APPLETON       TSTM      66  64  94 SW7       29.72S
OSHKOSH        LGT RAIN  69  66  90 SW5       29.71S FOG
FOND DU LAC    LGT RAIN  70  64  81 SW8       29.72F
$$

WIZ022-050-052-011800-
EAST CENTRAL WISCONSIN

CITY           SKY/WX    TMP DP  RH WIND       PRES   REMARKS
STURGEON BAY   CLOUDY    66  63  88 SW10G17   29.69F
MANITOWOC      CLOUDY    72  68  87 W6        29.71F
SHEBOYGAN      CLOUDY    74  70  87 SW9       29.71F
$$

LMZ563-521-522-541>543-011800-
LAKESHORE

STATION/POSITION TIME  TEMP    WIND        PRES    VSBY  WAVE
                       AIR SEA DIR/SP/G                  HT/PER
                 (UTC) (F)     (DEG/KT/KT) (MB)    (MI)  (FT/S)
SHEBOYGAN LKSHOR 1700   70 55  220/  8/  9 1006.0F
KEWAUNEE LKSHORE 1700   70     250/  7/ 13 1004.9F
NORTHPORT PIER   1700   70     250/  4/ 11 1004.4F
N MID LAKE BUOY  1700   67 65  220/ 16/ 17 1004.0F         4/ 6
S GREEN BAY BUOY 1700   68     VRB 14/ 16  1006.1F
CHAMBERS ISLAND  1700   67     210/  7/ 14 1005.4R
MENOMINEE LKSHOR 1700   66     210/  5/ 10 1005.7F
$$



USA.gov is the U.S. government's official web portal to all federal, state and local government web resources and services.